Time,TemperatureF,DewpointF,PressureIn,WindDirection,WindDirectionDegrees,WindSpeedMPH,WindSpeedGustMPH,Humidity,HourlyPrecipIn,Conditions,Clouds,dailyrainin,SoftwareType,DateUTC
2013-02-08 00:01:00,19.4,13.7,30.16,WNW,300,0.0,0.0,78,0.00,,---,0.01,VWS V14.01,2013-02-08 07:01:00,
2013-02-08 00:06:00,19.0,13.3,30.16,WNW,299,0.0,1.0,78,0.00,,---,0.00,VWS V14.01,2013-02-08 07:06:00,
2013-02-08 06:25:00,34.0,16.9,29.95,South,180,1.0,5.0,49,0.00,,---,0.00,VWS V14.01,2013-02-08 13:25:00,
2013-02-08 06:39:00,34.0,16.9,29.95,South,180,1.0,5.0,49,0.00,,---,0.00,VWS V14.01,2013-02-08 13:39:00,
2013-02-08 06:44:00,34.4,16.8,29.96,South,188,0.0,5.0,48,0.00,,---,0.00,VWS V14.01,2013-02-08 13:44:00,
2013-02-08 06:49:00,34.4,16.3,29.95,South,187,0.0,3.0,47,0.00,,---,0.00,VWS V14.01,2013-02-08 13:49:00,
2013-02-08 06:54:00,34.4,15.8,29.95,South,188,4.0,6.0,46,0.00,,---,0.00,VWS V14.01,2013-02-08 13:54:00,
2013-02-08 06:59:00,35.3,16.1,29.94,South,188,0.0,8.0,45,0.00,,---,0.00,VWS V14.01,2013-02-08 13:59:00,
2013-02-08 07:04:00,35.3,16.6,29.95,South,187,0.0,7.0,46,0.00,,---,0.00,VWS V14.01,2013-02-08 14:04:00,
2013-02-08 07:09:00,35.0,16.3,29.97,South,188,0.0,2.0,46,0.00,,---,0.00,VWS V14.01,2013-02-08 14:09:00,
2013-02-08 07:14:00,34.8,16.1,29.96,South,188,0.0,0.0,46,0.00,,---,0.00,VWS V14.01,2013-02-08 14:14:00,
2013-02-08 07:19:00,34.5,15.9,29.96,South,187,0.0,0.0,46,0.00,,---,0.00,VWS V14.01,2013-02-08 14:19:00,
2013-02-08 07:24:00,34.4,15.8,29.97,South,188,0.0,2.0,46,0.00,,---,0.00,VWS V14.01,2013-02-08 14:24:00,
2013-02-08 07:29:00,33.9,16.3,29.97,South,188,2.0,6.0,48,0.00,,---,0.00,VWS V14.01,2013-02-08 14:29:00,
2013-02-08 07:34:00,33.2,17.0,29.98,South,188,4.0,8.0,51,0.00,,---,0.00,VWS V14.01,2013-02-08 14:34:00,
2013-02-08 07:39:00,33.7,17.0,29.96,South,188,2.0,7.0,50,0.00,,---,0.00,VWS V14.01,2013-02-08 14:39:00,
2013-02-08 07:44:00,34.9,17.2,29.97,South,188,4.0,10.0,48,0.00,,---,0.00,VWS V14.01,2013-02-08 14:44:00,
2013-02-08 07:49:00,35.0,17.8,29.97,South,188,6.0,7.0,49,0.00,,---,0.00,VWS V14.01,2013-02-08 14:49:00,
2013-02-08 07:54:00,35.2,17.5,29.97,South,188,4.0,4.0,48,0.00,,---,0.00,VWS V14.01,2013-02-08 14:54:00,
2013-02-08 07:59:00,35.6,17.4,29.95,South,188,4.0,6.0,47,0.00,,---,0.00,VWS V14.01,2013-02-08 14:59:00,
2013-02-08 08:04:00,36.0,18.2,29.95,South,188,4.0,4.0,48,0.00,,---,0.00,VWS V14.01,2013-02-08 15:04:00,
2013-02-08 08:09:00,36.1,17.8,29.98,South,188,1.0,1.0,47,0.00,,---,0.00,VWS V14.01,2013-02-08 15:09:00,
2013-02-08 08:14:00,36.5,18.2,29.96,South,188,2.0,2.0,47,0.00,,---,0.00,VWS V14.01,2013-02-08 15:14:00,
2013-02-08 08:19:00,37.2,18.8,29.97,South,188,0.0,8.0,47,0.00,,---,0.00,VWS V14.01,2013-02-08 15:19:00,
2013-02-08 08:24:00,38.1,18.6,29.96,South,188,1.0,6.0,45,0.00,,---,0.00,VWS V14.01,2013-02-08 15:24:00,
2013-02-08 08:29:00,38.9,19.4,29.94,South,188,7.0,13.0,45,0.00,,---,0.00,VWS V14.01,2013-02-08 15:29:00,
2013-02-08 08:34:00,39.2,19.7,29.95,South,190,7.0,12.0,45,0.00,,---,0.00,VWS V14.01,2013-02-08 15:34:00,
2013-02-08 08:39:00,39.5,20.5,29.94,South,190,7.0,13.0,46,0.00,,---,0.00,VWS V14.01,2013-02-08 15:39:00,
2013-02-08 08:44:00,39.9,19.2,29.94,South,190,4.0,12.0,43,0.00,,---,0.00,VWS V14.01,2013-02-08 15:44:00,
2013-02-08 08:49:00,40.1,19.4,29.93,SSW,192,10.0,12.0,43,0.00,,---,0.00,VWS V14.01,2013-02-08 15:49:00,
2013-02-08 08:54:00,40.2,19.5,29.93,SSW,194,5.0,14.0,43,0.00,,---,0.00,VWS V14.01,2013-02-08 15:54:00,
2013-02-08 08:59:00,40.2,19.5,29.93,SSW,194,12.0,12.0,43,0.00,,---,0.00,VWS V14.01,2013-02-08 15:59:00,
2013-02-08 09:04:00,40.0,18.8,29.92,SSW,194,5.0,10.0,42,0.00,,---,0.00,VWS V14.01,2013-02-08 16:04:00,
2013-02-08 09:09:00,40.2,18.4,29.94,SSW,194,0.0,9.0,41,0.00,,---,0.00,VWS V14.01,2013-02-08 16:09:00,
2013-02-08 09:14:00,40.4,19.1,29.94,SSW,194,1.0,9.0,42,0.00,,---,0.00,VWS V14.01,2013-02-08 16:14:00,
2013-02-08 09:19:00,40.6,19.3,29.94,SSW,194,6.0,8.0,42,0.00,,---,0.00,VWS V14.01,2013-02-08 16:19:00,
2013-02-08 09:24:00,40.9,19.6,29.94,SSW,194,2.0,7.0,42,0.00,,---,0.00,VWS V14.01,2013-02-08 16:24:00,
2013-02-08 09:29:00,41.1,18.6,29.94,SSW,194,0.0,9.0,40,0.00,,---,0.00,VWS V14.01,2013-02-08 16:29:00,
2013-02-08 09:34:00,41.3,18.2,29.94,SSW,194,0.0,13.0,39,0.00,,---,0.00,VWS V14.01,2013-02-08 16:34:00,
2013-02-08 09:39:00,41.5,18.4,29.92,South,188,1.0,11.0,39,0.00,,---,0.00,VWS V14.01,2013-02-08 16:39:00,
2013-02-08 09:44:00,41.5,17.8,29.91,South,188,1.0,9.0,38,0.00,,---,0.00,VWS V14.01,2013-02-08 16:44:00,
2013-02-08 09:49:00,41.9,16.9,29.91,South,188,0.0,10.0,36,0.00,,---,0.00,VWS V14.01,2013-02-08 16:49:00,
2013-02-08 09:54:00,42.0,17.0,29.91,South,187,5.0,9.0,36,0.00,,---,0.00,VWS V14.01,2013-02-08 16:54:00,
2013-02-08 09:59:00,41.6,16.0,29.91,South,182,1.0,6.0,35,0.00,,---,0.00,VWS V14.01,2013-02-08 16:59:00,
2013-02-08 10:04:00,41.4,16.5,29.91,South,182,1.0,9.0,36,0.00,,---,0.00,VWS V14.01,2013-02-08 17:04:00,
2013-02-08 10:09:00,41.3,16.4,29.94,South,179,7.0,8.0,36,0.00,,---,0.00,VWS V14.01,2013-02-08 17:09:00,
2013-02-08 10:14:00,41.1,16.2,29.95,South,180,1.0,9.0,36,0.00,,---,0.00,VWS V14.01,2013-02-08 17:14:00,
2013-02-08 10:19:00,41.1,16.2,29.95,South,179,0.0,4.0,36,0.00,,---,0.00,VWS V14.01,2013-02-08 17:19:00,
2013-02-08 10:24:00,41.1,15.6,29.95,South,179,0.0,5.0,35,0.00,,---,0.00,VWS V14.01,2013-02-08 17:24:00,
2013-02-08 10:29:00,41.3,15.1,29.96,South,173,2.0,9.0,34,0.00,,---,0.00,VWS V14.01,2013-02-08 17:29:00,
2013-02-08 10:34:00,41.2,16.3,29.95,South,173,5.0,9.0,36,0.00,,---,0.00,VWS V14.01,2013-02-08 17:34:00,
2013-02-08 10:39:00,41.5,17.2,29.94,SSE,160,4.0,9.0,37,0.00,,---,0.00,VWS V14.01,2013-02-08 17:39:00,
2013-02-08 10:44:00,41.9,16.3,29.94,SSE,153,4.0,9.0,35,0.00,,---,0.00,VWS V14.01,2013-02-08 17:44:00,
2013-02-08 10:49:00,42.7,16.3,29.91,SSE,152,7.0,9.0,34,0.00,,---,0.00,VWS V14.01,2013-02-08 17:49:00,
2013-02-08 10:54:00,42.9,15.1,29.92,West,281,3.0,18.0,32,0.00,,---,0.00,VWS V14.01,2013-02-08 17:54:00,
2013-02-08 10:59:00,42.7,16.3,29.92,West,268,10.0,13.0,34,0.00,,---,0.00,VWS V14.01,2013-02-08 17:59:00,
2013-02-08 11:04:00,42.8,17.1,29.92,West,273,22.0,25.0,35,0.00,,---,0.00,VWS V14.01,2013-02-08 18:04:00,
2013-02-08 11:09:00,42.7,17.0,29.93,SSW,205,14.0,16.0,35,0.00,,---,0.00,VWS V14.01,2013-02-08 18:09:00,
2013-02-08 11:15:00,43.2,17.4,29.93,SW,216,7.0,15.0,35,0.00,,---,0.00,VWS V14.01,2013-02-08 18:15:00,
2013-02-08 11:20:00,43.5,17.0,29.92,South,186,5.0,25.0,34,0.00,,---,0.00,VWS V14.01,2013-02-08 18:20:00,
2013-02-08 11:25:00,43.3,17.5,29.90,WSW,237,8.0,21.0,35,0.00,,---,0.00,VWS V14.01,2013-02-08 18:25:00,
2013-02-08 11:30:00,42.9,16.5,29.89,SSW,201,9.0,33.0,34,0.00,,---,0.00,VWS V14.01,2013-02-08 18:30:00,
2013-02-08 11:35:00,43.4,16.9,29.88,SSE,152,14.0,28.0,34,0.00,,---,0.00,VWS V14.01,2013-02-08 18:35:00,
2013-02-08 11:40:00,43.3,16.8,29.87,WSW,237,23.0,32.0,34,0.00,,---,0.00,VWS V14.01,2013-02-08 18:40:00,
2013-02-08 11:45:00,43.2,17.4,29.86,West,263,11.0,42.0,35,0.00,,---,0.00,VWS V14.01,2013-02-08 18:45:00,
2013-02-08 11:50:00,43.7,16.5,29.85,SSW,209,21.0,36.0,33,0.00,,---,0.00,VWS V14.01,2013-02-08 18:50:00,
2013-02-08 11:55:00,43.6,16.4,29.86,WSW,241,19.0,36.0,33,0.00,,---,0.00,VWS V14.01,2013-02-08 18:55:00,
2013-02-08 12:00:00,43.3,16.1,29.86,WSW,247,14.0,35.0,33,0.00,,---,0.00,VWS V14.01,2013-02-08 19:00:00,
2013-02-08 12:05:00,43.8,17.3,29.85,West,259,19.0,32.0,34,0.00,,---,0.00,VWS V14.01,2013-02-08 19:05:00,
2013-02-08 12:10:00,43.8,16.6,29.84,SSE,166,22.0,36.0,33,0.00,,---,0.00,VWS V14.01,2013-02-08 19:10:00,
2013-02-08 12:15:00,43.4,16.2,29.84,WSW,244,22.0,30.0,33,0.00,,---,0.00,VWS V14.01,2013-02-08 19:15:00,
2013-02-08 12:20:00,43.4,16.9,29.83,SW,219,13.0,36.0,34,0.00,,---,0.00,VWS V14.01,2013-02-08 19:20:00,
2013-02-08 12:25:00,43.7,16.5,29.83,WSW,252,29.0,34.0,33,0.00,,---,0.00,VWS V14.01,2013-02-08 19:25:00,
2013-02-08 12:30:00,43.7,16.5,29.82,WNW,288,13.0,32.0,33,0.00,,---,0.00,VWS V14.01,2013-02-08 19:30:00,
2013-02-08 12:35:00,43.6,17.1,29.82,WSW,242,14.0,30.0,34,0.00,,---,0.00,VWS V14.01,2013-02-08 19:35:00,
2013-02-08 12:40:00,43.9,17.4,29.82,SSW,199,23.0,30.0,34,0.00,,---,0.00,VWS V14.01,2013-02-08 19:40:00,
2013-02-08 12:45:00,44.0,16.8,29.82,SW,225,31.0,31.0,33,0.00,,---,0.00,VWS V14.01,2013-02-08 19:45:00,
2013-02-08 12:50:00,44.0,17.5,29.82,SSW,192,14.0,28.0,34,0.00,,---,0.00,VWS V14.01,2013-02-08 19:50:00,
2013-02-08 12:55:00,43.9,17.4,29.82,SW,217,18.0,33.0,34,0.00,,---,0.00,VWS V14.01,2013-02-08 19:55:00,
2013-02-08 13:00:00,43.6,17.8,29.82,South,179,18.0,38.0,35,0.00,,---,0.00,VWS V14.01,2013-02-08 20:00:00,
2013-02-08 13:05:00,43.7,17.2,29.82,SW,223,16.0,35.0,34,0.00,,---,0.00,VWS V14.01,2013-02-08 20:05:00,
2013-02-08 13:10:00,43.4,17.6,29.82,SW,214,8.0,36.0,35,0.00,,---,0.00,VWS V14.01,2013-02-08 20:10:00,
2013-02-08 13:15:00,44.0,17.5,29.80,SW,236,6.0,29.0,34,0.00,,---,0.00,VWS V14.01,2013-02-08 20:15:00,
2013-02-08 13:20:00,44.1,18.2,29.81,SW,233,14.0,36.0,35,0.00,,---,0.00,VWS V14.01,2013-02-08 20:20:00,
2013-02-08 13:25:00,43.9,19.3,29.80,SW,233,20.0,27.0,37,0.00,,---,0.00,VWS V14.01,2013-02-08 20:25:00,
2013-02-08 13:30:00,44.3,18.4,29.80,South,175,12.0,28.0,35,0.00,,---,0.00,VWS V14.01,2013-02-08 20:30:00,
2013-02-08 13:35:00,45.0,16.2,29.80,SW,227,29.0,29.0,31,0.00,,---,0.00,VWS V14.01,2013-02-08 20:35:00,
2013-02-08 13:40:00,44.5,16.5,29.79,SW,229,15.0,33.0,32,0.00,,---,0.00,VWS V14.01,2013-02-08 20:40:00,
2013-02-08 13:45:00,44.5,16.5,29.79,SW,219,9.0,29.0,32,0.00,,---,0.00,VWS V14.01,2013-02-08 20:45:00,
2013-02-08 13:50:00,44.5,15.8,29.79,SW,219,27.0,33.0,31,0.00,,---,0.00,VWS V14.01,2013-02-08 20:50:00,
2013-02-08 13:55:00,44.8,16.8,29.80,SW,223,16.0,28.0,32,0.00,,---,0.00,VWS V14.01,2013-02-08 20:55:00,
2013-02-08 14:00:00,44.9,17.6,29.80,South,184,16.0,27.0,33,0.00,,---,0.00,VWS V14.01,2013-02-08 21:00:00,
2013-02-08 14:05:00,44.8,18.2,29.80,West,263,14.0,23.0,34,0.00,,---,0.00,VWS V14.01,2013-02-08 21:05:00,
2013-02-08 14:10:00,44.6,18.0,29.73,SSW,209,20.0,26.0,34,0.00,,---,0.00,VWS V14.01,2013-02-08 21:10:00,
2013-02-08 14:15:00,44.7,18.8,29.73,SW,219,26.0,28.0,35,0.00,,---,0.00,VWS V14.01,2013-02-08 21:15:00,
2013-02-08 14:20:00,45.0,19.7,29.73,SSW,207,21.0,23.0,36,0.00,,---,0.00,VWS V14.01,2013-02-08 21:20:00,
2013-02-08 14:25:00,45.0,19.0,29.73,SW,217,19.0,21.0,35,0.00,,---,0.00,VWS V14.01,2013-02-08 21:25:00,
2013-02-08 14:30:00,44.7,18.8,29.73,SSW,192,9.0,30.0,35,0.00,,---,0.00,VWS V14.01,2013-02-08 21:30:00,
2013-02-08 14:35:00,45.0,18.3,29.73,SSW,199,7.0,25.0,34,0.00,,---,0.00,VWS V14.01,2013-02-08 21:35:00,
2013-02-08 14:40:00,45.2,17.1,29.72,SW,219,13.0,24.0,32,0.00,,---,0.00,VWS V14.01,2013-02-08 21:40:00,
2013-02-08 14:45:00,45.0,17.6,29.73,SW,220,14.0,26.0,33,0.00,,---,0.00,VWS V14.01,2013-02-08 21:45:00,
2013-02-08 14:50:00,44.6,16.6,29.73,SW,227,14.0,21.0,32,0.00,,---,0.00,VWS V14.01,2013-02-08 21:50:00,
2013-02-08 14:55:00,44.7,17.4,29.73,WSW,239,12.0,21.0,33,0.00,,---,0.00,VWS V14.01,2013-02-08 21:55:00,
2013-02-08 15:00:00,44.3,17.0,29.74,WSW,246,6.0,22.0,33,0.00,,---,0.00,VWS V14.01,2013-02-08 22:00:00,
2013-02-08 15:05:00,44.5,16.5,29.75,SW,227,12.0,21.0,32,0.00,,---,0.00,VWS V14.01,2013-02-08 22:05:00,
2013-02-08 15:10:00,44.7,16.7,29.68,SSW,206,8.0,21.0,32,0.00,,---,0.00,VWS V14.01,2013-02-08 22:10:00,
2013-02-08 15:15:00,44.3,17.0,29.67,South,185,8.0,15.0,33,0.00,,---,0.00,VWS V14.01,2013-02-08 22:15:00,
2013-02-08 15:20:00,44.0,16.8,29.67,SSW,204,5.0,23.0,33,0.00,,---,0.00,VWS V14.01,2013-02-08 22:20:00,
2013-02-08 15:25:00,44.3,17.0,29.67,WSW,243,12.0,27.0,33,0.00,,---,0.00,VWS V14.01,2013-02-08 22:25:00,
2013-02-08 15:30:00,44.3,17.0,29.67,SW,221,10.0,22.0,33,0.00,,---,0.00,VWS V14.01,2013-02-08 22:30:00,
2013-02-08 15:35:00,44.5,16.5,29.67,SSW,196,12.0,20.0,32,0.00,,---,0.00,VWS V14.01,2013-02-08 22:35:00,
2013-02-08 15:40:00,44.4,17.8,29.66,SSW,195,8.0,23.0,34,0.00,,---,0.00,VWS V14.01,2013-02-08 22:40:00,
2013-02-08 15:46:00,44.5,15.8,29.66,WSW,254,10.0,18.0,31,0.00,,---,0.00,VWS V14.01,2013-02-08 22:46:00,
2013-02-08 15:51:00,44.3,15.6,29.66,SSW,205,4.0,23.0,31,0.00,,---,0.00,VWS V14.01,2013-02-08 22:51:00,
2013-02-08 15:56:00,44.4,16.4,29.66,SW,219,8.0,19.0,32,0.00,,---,0.00,VWS V14.01,2013-02-08 22:56:00,
2013-02-08 16:01:00,43.7,15.8,29.66,SSW,209,7.0,22.0,32,0.00,,---,0.00,VWS V14.01,2013-02-08 23:01:00,
2013-02-08 16:06:00,42.4,16.7,29.67,SW,233,9.0,15.0,35,0.00,,---,0.00,VWS V14.01,2013-02-08 23:06:00,
2013-02-08 16:11:00,41.8,16.2,29.69,WSW,252,15.0,16.0,35,0.00,,---,0.00,VWS V14.01,2013-02-08 23:11:00,
2013-02-08 16:16:00,41.5,16.5,29.69,SW,217,6.0,16.0,36,0.00,,---,0.00,VWS V14.01,2013-02-08 23:16:00,
2013-02-08 16:21:00,41.4,15.1,29.69,SSW,192,7.0,18.0,34,0.00,,---,0.00,VWS V14.01,2013-02-08 23:21:00,
2013-02-08 16:26:00,41.7,15.4,29.69,SW,223,16.0,23.0,34,0.00,,---,0.00,VWS V14.01,2013-02-08 23:26:00,
2013-02-08 16:31:00,41.8,16.8,29.69,SW,226,6.0,19.0,36,0.00,,---,0.00,VWS V14.01,2013-02-08 23:31:00,
2013-02-08 16:36:00,41.1,16.8,29.69,WSW,238,13.0,18.0,37,0.00,,---,0.00,VWS V14.01,2013-02-08 23:36:00,
2013-02-08 16:41:00,41.2,16.3,29.69,SW,225,8.0,22.0,36,0.00,,---,0.00,VWS V14.01,2013-02-08 23:41:00,
2013-02-08 16:46:00,40.8,16.6,29.69,SSW,205,5.0,14.0,37,0.00,,---,0.00,VWS V14.01,2013-02-08 23:46:00,
2013-02-08 16:51:00,40.7,17.1,29.68,SSW,207,10.0,19.0,38,0.00,,---,0.00,VWS V14.01,2013-02-08 23:51:00,
2013-02-08 16:56:00,40.7,17.1,29.68,South,180,8.0,18.0,38,0.00,,---,0.00,VWS V14.01,2013-02-08 23:56:00,
2013-02-08 17:01:00,40.4,17.4,29.68,SSW,194,8.0,14.0,39,0.00,,---,0.00,VWS V14.01,2013-02-09 00:01:00,
2013-02-08 17:06:00,40.2,17.2,29.70,SSW,211,12.0,25.0,39,0.00,,---,0.00,VWS V14.01,2013-02-09 00:06:00,
2013-02-08 17:11:00,39.9,18.1,29.69,South,187,7.0,18.0,41,0.00,,---,0.00,VWS V14.01,2013-02-09 00:11:00,
2013-02-08 17:16:00,39.7,17.4,29.68,SSW,213,6.0,18.0,40,0.00,,---,0.00,VWS V14.01,2013-02-09 00:16:00,
2013-02-08 17:21:00,39.9,17.5,29.68,SW,224,12.0,19.0,40,0.00,,---,0.00,VWS V14.01,2013-02-09 00:21:00,
2013-02-08 17:26:00,39.9,17.0,29.68,SSW,198,10.0,18.0,39,0.00,,---,0.00,VWS V14.01,2013-02-09 00:26:00,
2013-02-08 17:31:00,39.9,17.5,29.67,South,190,9.0,9.0,40,0.00,,---,0.00,VWS V14.01,2013-02-09 00:31:00,
2013-02-08 17:36:00,39.7,17.4,29.68,SSW,192,8.0,9.0,40,0.00,,---,0.00,VWS V14.01,2013-02-09 00:36:00,
2013-02-08 17:41:00,39.3,17.0,29.69,SSW,195,11.0,13.0,40,0.00,,---,0.00,VWS V14.01,2013-02-09 00:41:00,
2013-02-08 17:46:00,39.0,17.3,29.70,SW,215,16.0,16.0,41,0.00,,---,0.00,VWS V14.01,2013-02-09 00:46:00,
2013-02-08 17:51:00,39.1,17.4,29.69,SSW,204,13.0,15.0,41,0.00,,---,0.00,VWS V14.01,2013-02-09 00:51:00,
2013-02-08 17:56:00,39.0,17.3,29.69,SW,225,9.0,10.0,41,0.00,,---,0.00,VWS V14.01,2013-02-09 00:56:00,
2013-02-08 18:01:00,38.4,17.3,29.69,SSW,194,8.0,12.0,42,0.00,,---,0.00,VWS V14.01,2013-02-09 01:01:00,
2013-02-08 18:06:00,38.4,17.3,29.69,South,184,6.0,7.0,42,0.00,,---,0.00,VWS V14.01,2013-02-09 01:06:00,
2013-02-08 18:11:00,38.2,17.1,29.69,South,186,7.0,8.0,42,0.00,,---,0.00,VWS V14.01,2013-02-09 01:11:00,
2013-02-08 18:16:00,37.8,17.3,29.69,South,182,18.0,18.0,43,0.00,,---,0.00,VWS V14.01,2013-02-09 01:16:00,
2013-02-08 18:21:00,37.8,17.9,29.69,SSW,192,18.0,18.0,44,0.00,,---,0.00,VWS V14.01,2013-02-09 01:21:00,
2013-02-08 18:26:00,37.9,17.4,29.69,South,186,12.0,14.0,43,0.00,,---,0.00,VWS V14.01,2013-02-09 01:26:00,
2013-02-08 18:31:00,37.8,17.9,29.69,South,178,12.0,12.0,44,0.00,,---,0.00,VWS V14.01,2013-02-09 01:31:00,
2013-02-08 18:36:00,37.9,18.0,29.69,South,180,13.0,15.0,44,0.00,,---,0.00,VWS V14.01,2013-02-09 01:36:00,
2013-02-08 18:41:00,37.7,17.8,29.69,SW,221,10.0,13.0,44,0.00,,---,0.00,VWS V14.01,2013-02-09 01:41:00,
2013-02-08 18:46:00,37.5,18.1,29.69,SW,215,11.0,11.0,45,0.00,,---,0.00,VWS V14.01,2013-02-09 01:46:00,
2013-02-08 18:51:00,37.5,18.1,29.69,South,186,9.0,15.0,45,0.00,,---,0.00,VWS V14.01,2013-02-09 01:51:00,
2013-02-08 18:56:00,38.0,18.6,29.70,SW,217,16.0,16.0,45,0.00,,---,0.00,VWS V14.01,2013-02-09 01:56:00,
2013-02-08 19:01:00,38.3,18.3,29.70,South,180,3.0,3.0,44,0.00,,---,0.00,VWS V14.01,2013-02-09 02:01:00,
2013-02-08 19:06:00,38.2,18.2,29.68,South,186,8.0,10.0,44,0.00,,---,0.00,VWS V14.01,2013-02-09 02:06:00,
2013-02-08 19:11:00,37.9,18.5,29.68,South,182,7.0,7.0,45,0.00,,---,0.00,VWS V14.01,2013-02-09 02:11:00,
2013-02-08 19:16:00,37.8,18.4,29.68,South,190,4.0,4.0,45,0.00,,---,0.00,VWS V14.01,2013-02-09 02:16:00,
2013-02-08 19:21:00,38.0,18.6,29.68,South,183,10.0,11.0,45,0.00,,---,0.00,VWS V14.01,2013-02-09 02:21:00,
2013-02-08 19:26:00,38.7,18.7,29.68,South,189,7.0,10.0,44,0.00,,---,0.00,VWS V14.01,2013-02-09 02:26:00,
2013-02-08 19:31:00,38.7,19.2,29.68,South,186,12.0,23.0,45,0.00,,---,0.00,VWS V14.01,2013-02-09 02:31:00,
2013-02-08 19:37:00,38.7,19.2,29.68,South,177,14.0,14.0,45,0.00,,---,0.00,VWS V14.01,2013-02-09 02:37:00,
2013-02-08 19:42:00,39.0,19.5,29.68,South,183,10.0,16.0,45,0.00,,---,0.00,VWS V14.01,2013-02-09 02:42:00,
2013-02-08 19:47:00,38.8,19.8,29.68,SW,230,10.0,14.0,46,0.00,,---,0.00,VWS V14.01,2013-02-09 02:47:00,
2013-02-08 19:52:00,38.8,19.8,29.68,South,184,14.0,16.0,46,0.00,,---,0.00,VWS V14.01,2013-02-09 02:52:00,
2013-02-08 19:57:00,38.9,19.9,29.68,South,182,4.0,15.0,46,0.00,,---,0.00,VWS V14.01,2013-02-09 02:57:00,
2013-02-08 20:02:00,38.9,19.9,29.68,South,190,6.0,9.0,46,0.00,,---,0.00,VWS V14.01,2013-02-09 03:02:00,
2013-02-08 20:07:00,39.0,19.5,29.67,SSW,197,12.0,12.0,45,0.00,,---,0.00,VWS V14.01,2013-02-09 03:07:00,
2013-02-08 20:12:00,39.2,19.7,29.65,SSE,156,8.0,8.0,45,0.00,,---,0.00,VWS V14.01,2013-02-09 03:12:00,
2013-02-08 20:17:00,39.2,20.2,29.64,SSW,202,4.0,10.0,46,0.00,,---,0.00,VWS V14.01,2013-02-09 03:17:00,
2013-02-08 20:22:00,39.2,19.7,29.64,SSE,149,2.0,8.0,45,0.00,,---,0.00,VWS V14.01,2013-02-09 03:22:00,
2013-02-08 20:27:00,39.3,19.8,29.65,South,182,2.0,13.0,45,0.00,,---,0.00,VWS V14.01,2013-02-09 03:27:00,
2013-02-08 20:32:00,39.1,20.1,29.64,SSW,195,4.0,8.0,46,0.00,,---,0.00,VWS V14.01,2013-02-09 03:32:00,
2013-02-08 20:37:00,39.1,19.6,29.64,SSW,200,7.0,13.0,45,0.00,,---,0.00,VWS V14.01,2013-02-09 03:37:00,
2013-02-08 20:42:00,38.9,19.9,29.64,South,186,2.0,10.0,46,0.00,,---,0.00,VWS V14.01,2013-02-09 03:42:00,
2013-02-08 20:47:00,38.8,19.8,29.63,South,189,5.0,8.0,46,0.00,,---,0.00,VWS V14.01,2013-02-09 03:47:00,
2013-02-08 20:52:00,38.9,19.9,29.64,South,182,1.0,9.0,46,0.00,,---,0.00,VWS V14.01,2013-02-09 03:52:00,
2013-02-08 20:57:00,38.8,19.8,29.63,South,191,11.0,21.0,46,0.00,,---,0.00,VWS V14.01,2013-02-09 03:57:00,
2013-02-08 21:02:00,39.3,19.8,29.63,SSW,203,8.0,15.0,45,0.00,,---,0.00,VWS V14.01,2013-02-09 04:02:00,
2013-02-08 21:07:00,39.6,19.5,29.61,SSW,201,9.0,28.0,44,0.00,,---,0.00,VWS V14.01,2013-02-09 04:07:00,
2013-02-08 21:12:00,39.5,19.9,29.61,South,188,10.0,16.0,45,0.00,,---,0.00,VWS V14.01,2013-02-09 04:12:00,
2013-02-08 21:17:00,39.4,19.8,29.61,SSW,200,11.0,18.0,45,0.00,,---,0.00,VWS V14.01,2013-02-09 04:17:00,
2013-02-08 21:22:00,39.4,19.8,29.61,SSW,192,10.0,15.0,45,0.00,,---,0.00,VWS V14.01,2013-02-09 04:22:00,
2013-02-08 21:27:00,39.5,19.4,29.61,South,179,21.0,21.0,44,0.00,,---,0.00,VWS V14.01,2013-02-09 04:27:00,
2013-02-08 21:32:00,40.2,19.5,29.61,South,187,14.0,15.0,43,0.00,,---,0.00,VWS V14.01,2013-02-09 04:32:00,
2013-02-08 21:37:00,40.1,19.4,29.61,South,175,9.0,15.0,43,0.00,,---,0.00,VWS V14.01,2013-02-09 04:37:00,
2013-02-08 21:42:00,39.9,19.2,29.60,South,187,7.0,21.0,43,0.00,,---,0.00,VWS V14.01,2013-02-09 04:42:00,
2013-02-08 21:47:00,39.8,19.7,29.60,SW,219,10.0,24.0,44,0.00,,---,0.00,VWS V14.01,2013-02-09 04:47:00,
2013-02-08 21:53:00,40.1,19.4,29.60,South,175,15.0,15.0,43,0.00,,---,0.00,VWS V14.01,2013-02-09 04:53:00,
2013-02-08 21:58:00,40.0,19.9,29.60,South,182,11.0,19.0,44,0.00,,---,0.00,VWS V14.01,2013-02-09 04:58:00,
2013-02-08 22:00:00,39.8,19.7,29.60,SSW,202,11.0,20.0,44,0.00,,---,0.00,VWS V14.01,2013-02-09 05:00:00,
2013-02-08 22:01:00,39.7,19.6,29.60,SSW,198,8.0,20.0,44,0.00,,---,0.00,VWS V14.01,2013-02-09 05:01:00,
2013-02-08 22:06:00,40.0,19.3,29.60,SSW,205,22.0,30.0,43,0.00,,---,0.00,VWS V14.01,2013-02-09 05:06:00,
2013-02-08 22:11:00,40.2,19.0,29.58,WSW,238,25.0,29.0,42,0.00,,---,0.00,VWS V14.01,2013-02-09 05:11:00,
2013-02-08 22:16:00,40.3,19.6,29.58,South,188,14.0,14.0,43,0.00,,---,0.00,VWS V14.01,2013-02-09 05:16:00,
2013-02-08 22:21:00,39.9,19.8,29.58,South,183,12.0,23.0,44,0.00,,---,0.00,VWS V14.01,2013-02-09 05:21:00,
2013-02-08 22:26:00,40.1,18.9,29.58,SW,218,14.0,26.0,42,0.00,,---,0.00,VWS V14.01,2013-02-09 05:26:00,
2013-02-08 22:31:00,40.2,19.5,29.58,SSW,193,12.0,26.0,43,0.00,,---,0.00,VWS V14.01,2013-02-09 05:31:00,
2013-02-08 22:36:00,39.7,19.0,29.58,SSW,195,15.0,19.0,43,0.00,,---,0.00,VWS V14.01,2013-02-09 05:36:00,
2013-02-08 22:41:00,39.9,19.2,29.58,South,173,9.0,12.0,43,0.00,,---,0.00,VWS V14.01,2013-02-09 05:41:00,
2013-02-08 22:46:00,39.7,19.0,29.58,SSW,192,12.0,12.0,43,0.00,,---,0.00,VWS V14.01,2013-02-09 05:46:00,
2013-02-08 22:51:00,39.5,18.9,29.58,South,179,11.0,11.0,43,0.00,,---,0.00,VWS V14.01,2013-02-09 05:51:00,
2013-02-08 22:56:00,39.6,19.0,29.58,SW,221,8.0,12.0,43,0.00,,---,0.00,VWS V14.01,2013-02-09 05:56:00,
2013-02-08 23:01:00,39.5,19.4,29.58,South,186,9.0,9.0,44,0.00,,---,0.00,VWS V14.01,2013-02-09 06:01:00,
2013-02-08 23:06:00,39.1,19.0,29.57,SSW,200,5.0,5.0,44,0.00,,---,0.00,VWS V14.01,2013-02-09 06:06:00,
2013-02-08 23:11:00,39.1,19.0,29.57,South,187,11.0,11.0,44,0.00,,---,0.00,VWS V14.01,2013-02-09 06:11:00,
2013-02-08 23:16:00,39.3,18.7,29.58,SSW,199,13.0,19.0,43,0.00,,---,0.00,VWS V14.01,2013-02-09 06:16:00,
2013-02-08 23:21:00,39.3,18.7,29.57,SW,221,15.0,21.0,43,0.00,,---,0.00,VWS V14.01,2013-02-09 06:21:00,
2013-02-08 23:26:00,39.3,17.6,29.57,SSW,207,7.0,12.0,41,0.00,,---,0.00,VWS V14.01,2013-02-09 06:26:00,
2013-02-08 23:31:00,39.4,18.2,29.58,SSW,194,8.0,8.0,42,0.00,,---,0.00,VWS V14.01,2013-02-09 06:31:00,